Location: Dittelbrunn
(50.0738°N, 10.2196°E)
Time: 11:59:39
(UTC+00:00)

CREW DRAGON DEMO-1 DEB - Pass Details

Date: 18 September 2020
Orbit: 362 x 364 km, 51.6° (Epoch: 24 October)

Event Time Altitude Azimuth Distance (km) Brightness Sun altitude
Rises 18:27:13 0° 272° (W) 2,197 8.5 -10.6°
Reaches altitude 10° 18:29:15 10° 276° (W) 1,351 7.1 -10.9°
Maximum altitude 18:32:15 61° 358° (N) 417 3.1 -11.4°
Enters shadow 18:34:21 18° 76° (ENE) 997 4.4 -11.7°
